Regional Weather Roundup
Issued by NWS Charleston, SC

Home | Current Version | Previous Version | Text Only | Print | Product List | Glossary On
Versions: 1 2 3 4 5 6 7 8 9 10 11 12 13 14 15 16 17 18 19 20 21 22 23 24 25 26 27 28 29 30 31 32 33 34 35 36 37 38 39 40 41 42 43 44 45 46 47 48 49 50
000
ASUS42 KCHS 010228
RWRCHS

REGIONAL WEATHER ROUNDUP
NATIONAL WEATHER SERVICE CHARLESTON SC
1000 PM EDT TUE MAY 31 2016

NOTE: "FAIR" INDICATES FEW OR NO CLOUDS BELOW 12,000 FEET WITH NO
SIGNIFICANT WEATHER AND/OR OBSTRUCTIONS TO VISIBILITY.

NOT ALL STATIONS ARE QUALITY CONTROLLED. USE DATA WITH CAUTION...
ESPECIALLY DEWPOINT OBSERVATIONS.

SCZ027-030-031-034>040-042>050-010300-
...SOUTHEAST SOUTH CAROLINA...

CITY           SKY/WX    TMP DP  RH WIND       PRES   REMARKS
N CHARLESTON   PTCLDY    75  71  87 SW3       29.93R
WATERFRONT PRK   N/A     75  72  90 CALM      29.90R
MOUNT PLEASANT FAIR      72  72 100 CALM      29.94R
JOHNS ISLAND   FAIR      75  72  88 CALM      29.94R
PINOPOLIS        N/A     79  73  83 CALM      29.86R
MONCKS CORNER  FAIR      70  68  94 CALM      29.94R
SUMMERVILLE    FAIR      77  72  83 CALM      29.95R
BEAUFORT MCAS  CLEAR     77  73  87 SW7       29.93R
BEAUFORT ARPT  FAIR      77  72  83 SW5       29.93R
HILTON HEAD IS CLEAR     75  73  94 S3        29.94S
WALTERBORO     CLEAR     77  77 100 E7        29.94R
ALLENDALE      TSTM      73  68  83 N13G20    29.96R

...SOUTHERN MIDLANDS AND PEE DEE...

CITY           SKY/WX    TMP DP  RH WIND       PRES   REMARKS
GEORGETOWN     FAIR      72  70  94 CALM      29.93R
KINGSTREE      FAIR      72  70  94 CALM      29.94R
ORANGEBURG     PTCLDY    70  67  90 CALM      29.93F
BARNWELL       TSTM      72  72 100 S8        29.97R
AIKEN          MOCLDY    77  66  69 E3        29.99R
MANNING        FAIR      72  68  88 CALM      29.95R
COLUMBIA       MOCLDY    78  69  73 E6        29.94R
SUMTER         MOCLDY    76  70  80 E5        29.92R
FLORENCE       CLOUDY    74  70  87 CALM      29.95R
MYRTLE BEACH   PTCLDY    73  64  73 N7        29.93R
N MYRTLE BEACH CLOUDY    74  71  91 N7        29.92R

$$

GAZ063-065-086>088-099>101-113>116-118-119-134>141-150-010300-
...SOUTHEAST GEORGIA...

CITY           SKY/WX    TMP DP  RH WIND       PRES   REMARKS
SAVANNAH ARPT  PTCLDY    76  71  85 S5        29.94R
HUNTER AAF     CLEAR     76  74  94 S2        29.92R
FORT STEWART   MOCLDY    75  71  86 CALM      29.92R
STATESBORO     CLEAR     78  73  82 CALM      29.94R
SYLVANIA       CLEAR     79  74  84 CALM      29.95R
CLAXTON        FAIR      77  71  82 CALM      29.94R

...CSRA...CENTRAL AND FAR SOUTHEAST GEORGIA...

CITY           SKY/WX    TMP DP  RH WIND       PRES   REMARKS
THOMSON        PTCLDY    77  71  81 CALM      29.99R
AUGUSTA-BUSH   CLEAR     74  72  93 CALM      29.92R
AUGUSTA-DANIEL CLEAR     84  67  56 NE7       29.95R
SWAINSBORO     FAIR      79  70  73 CALM      29.94R
VIDALIA        CLEAR     77  68  73 SE3       29.94R
EASTMAN        FAIR      75  69  79 S6        29.95R
HAZLEHURST     FAIR      79  67  68 CALM      29.93R
ALMA           PTCLDY    74  67  78 CALM      29.93R
WAYCROSS       NOT AVBL
JESUP          FAIR      68  64  88 CALM      29.95R
BAXLEY         FAIR      73  70  88 CALM      29.94R
BRUNSWICK      CLOUDY    81  77  89 E5        29.94R
SAINT SIMONS   CLOUDY    78  74  87 E6        29.93R

$$

SCZ027-028-034-036>038-045-046-048>050-GAZ119-141-010300-
...LAKE AND SUPPLEMENTAL COASTAL OBSERVATIONS...

STATION/POSITION TIME  TEMP    WIND        PRES    WAVE   SWELL
                       AIR SEA DIR/SP/G            HT/PER HT/PER/DIR
                 (UTC) (F)     (DEG/KT/KT) (MB)    (FT/S) (FT/S/D)
WINYAH BAY       0045   73     310/  4     1012.0
LAKE MURRAY      0100   77        CALM     1013.2R
ACE BASIN NERRS  NOT AVBL
FORT PULASKI     0100      77              1013.5R
SAPELO ISLAND    0100   77     100/  2     1013.0F

$$

ANZ835-935-AMZ111-154-330-350-352-354-370-450-454-472-010300-
...C-MAN AND BUOY OBSERVATIONS...

STATION/POSITION TIME  TEMP    WIND        PRES    WAVE   SWELL
                       AIR SEA DIR/SP/G            HT/PER HT/PER/DIR
                 (UTC) (F)     (DEG/KT/KT) (MB)    (FT/S) (FT/S/D)
BUOY 41004       0150   76 77  310/  8/ 10 1012.6R   3/ 8   3/ 8
BUOY 41008       0150   77 77  180/  8/  8 1014.0R   2/ 8   2/ 90/ 8
FOLLY BEACH CMAN 0200   75     240/  3/  3 1014.0R
CAPERS NEARSHORE 0108   76 77   30/  4/  8 1012.5R
FRIPP NEARSHORE  0108   77 78  230/ 12/ 14 1012.3R


STATION/POSITION TIME  TEMP    WIND        PRES    WAVE   SWELL
                       AIR SEA DIR/SP/G            HT/PER HT/PER/DIR
                 (UTC) (F)     (DEG/KT/KT) (MB)    (FT/S) (FT/S/D)
5E ST. MARYS GA  0101      80                N/A     2/ 9
FRYING PAN BUOY  0200   78 80  130/ 10/ 14 1011.6R
BUOY 41025       0150   77 80  130/  2/  2 1014.4R   3/ 8   3/140/ 8
CAPE LOOKOUT NC  0200   76      50/  9/ 10 1013.6R
BUOY 41002       0150   77 77  150/ 12/ 14 1015.0R   5/ 8   3/110/ 8
BUOY 41010       0120   80 80  180/ 10/ 12 1014.2R
ST AUGUSTINE FL  0200   78 81  190/  7/  8 1014.7R


$$




USA.gov is the U.S. government's official web portal to all federal, state and local government web resources and services.